owner,sensor,date,latitude,longitude,vertical_datum,mass_concentration_of_oxygen_in_sea_water,qcFlag 
SCCF RECON,ioos:station:SCCF:51:1,2011-06-01T00:00:00Z,26.5545,-82.1715,1.463,7.31,1111122 
SCCF RECON,ioos:station:SCCF:51:1,2011-06-01T01:00:00Z,26.5545,-82.1715,1.464,7.01,1111122 
SCCF RECON,ioos:station:SCCF:51:1,2011-06-01T02:00:00Z,26.5545,-82.1715,1.557,6.87,1111122 
SCCF RECON,ioos:station:SCCF:51:1,2011-06-01T03:00:00Z,26.5545,-82.1715,1.682,6.83,1111122 
SCCF RECON,ioos:station:SCCF:51:1,2011-06-01T04:00:00Z,26.5545,-82.1715,1.771,6.0,1111122 
SCCF RECON,ioos:station:SCCF:51:1,2011-06-01T05:00:00Z,26.5545,-82.1715,1.845,5.92,1111122 
SCCF RECON,ioos:station:SCCF:51:1,2011-06-01T06:00:00Z,26.5545,-82.1715,1.889,5.85,1111122 
SCCF RECON,ioos:station:SCCF:51:1,2011-06-01T07:00:00Z,26.5545,-82.1715,1.878,5.64,1111122 
SCCF RECON,ioos:station:SCCF:51:1,2011-06-01T08:00:00Z,26.5545,-82.1715,1.83,5.73,1111122 
SCCF RECON,ioos:station:SCCF:51:1,2011-06-01T09:00:00Z,26.5545,-82.1715,1.803,5.43,1111122 
SCCF RECON,ioos:station:SCCF:51:1,2011-06-01T10:00:00Z,26.5545,-82.1715,1.801,5.4,1111122 
SCCF RECON,ioos:station:SCCF:51:1,2011-06-01T11:00:00Z,26.5545,-82.1715,1.844,5.33,1111122 
SCCF RECON,ioos:station:SCCF:51:1,2011-06-01T12:00:00Z,26.5545,-82.1715,1.919,5.39,1111122 
SCCF RECON,ioos:station:SCCF:51:1,2011-06-01T13:00:00Z,26.5545,-82.1715,2.011,5.45,1111122 
SCCF RECON,ioos:station:SCCF:51:1,2011-06-01T14:00:00Z,26.5545,-82.1715,2.111,5.92,1111122 
SCCF RECON,ioos:station:SCCF:51:1,2011-06-01T15:00:00Z,26.5545,-82.1715,2.206,5.99,1111122 
SCCF RECON,ioos:station:SCCF:51:1,2011-06-01T16:00:00Z,26.5545,-82.1715,2.268,5.98,1111122 
SCCF RECON,ioos:station:SCCF:51:1,2011-06-01T17:00:00Z,26.5545,-82.1715,2.247,6.08,1111122 
SCCF RECON,ioos:station:SCCF:51:1,2011-06-01T18:00:00Z,26.5545,-82.1715,2.171,6.25,1111122 
SCCF RECON,ioos:station:SCCF:51:1,2011-06-01T19:00:00Z,26.5545,-82.1715,2.071,6.31,1111122 
SCCF RECON,ioos:station:SCCF:51:1,2011-06-01T20:00:00Z,26.5545,-82.1715,1.942,6.48,1111122 
SCCF RECON,ioos:station:SCCF:51:1,2011-06-01T21:00:00Z,26.5545,-82.1715,1.806,6.44,1111122 
SCCF RECON,ioos:station:SCCF:51:1,2011-06-01T22:00:00Z,26.5545,-82.1715,1.663,6.73,1111122 
SCCF RECON,ioos:station:SCCF:51:1,2011-06-01T23:00:00Z,26.5545,-82.1715,1.546,6.83,1111122 
SCCF RECON,ioos:station:SCCF:51:1,2011-06-02T00:00:00Z,26.5545,-82.1715,1.451,6.92,1111122 
SCCF RECON,ioos:station:SCCF:51:1,2011-06-02T01:00:00Z,26.5545,-82.1715,1.409,6.57,1111122 
SCCF RECON,ioos:station:SCCF:51:1,2011-06-02T02:00:00Z,26.5545,-82.1715,1.431,6.3,1111122 
SCCF RECON,ioos:station:SCCF:51:1,2011-06-02T03:00:00Z,26.5545,-82.1715,1.538,6.16,1111122 
SCCF RECON,ioos:station:SCCF:51:1,2011-06-02T04:00:00Z,26.5545,-82.1715,1.709,5.9,1111122 
SCCF RECON,ioos:station:SCCF:51:1,2011-06-02T05:00:00Z,26.5545,-82.1715,1.801,6.07,1111122 
SCCF RECON,ioos:station:SCCF:51:1,2011-06-02T06:00:00Z,26.5545,-82.1715,1.889,5.91,1111122 
SCCF RECON,ioos:station:SCCF:51:1,2011-06-02T07:00:00Z,26.5545,-82.1715,1.938,5.66,1111122 
SCCF RECON,ioos:station:SCCF:51:1,2011-06-02T08:00:00Z,26.5545,-82.1715,1.945,5.61,1111122 
SCCF RECON,ioos:station:SCCF:51:1,2011-06-02T09:00:00Z,26.5545,-82.1715,1.881,5.54,1111122 
SCCF RECON,ioos:station:SCCF:51:1,2011-06-02T10:00:00Z,26.5545,-82.1715,1.826,5.42,1111122 
SCCF RECON,ioos:station:SCCF:51:1,2011-06-02T11:00:00Z,26.5545,-82.1715,1.824,5.46,1111122 
SCCF RECON,ioos:station:SCCF:51:1,2011-06-02T12:00:00Z,26.5545,-82.1715,1.872,5.45,1111122 
SCCF RECON,ioos:station:SCCF:51:1,2011-06-02T13:00:00Z,26.5545,-82.1715,1.959,5.51,1111122 
SCCF RECON,ioos:station:SCCF:51:1,2011-06-02T14:00:00Z,26.5545,-82.1715,2.05,5.63,1111122 
SCCF RECON,ioos:station:SCCF:51:1,2011-06-02T15:00:00Z,26.5545,-82.1715,2.149,5.94,1111122 
SCCF RECON,ioos:station:SCCF:51:1,2011-06-02T16:00:00Z,26.5545,-82.1715,2.244,6.13,1111122 
SCCF RECON,ioos:station:SCCF:51:1,2011-06-02T17:00:00Z,26.5545,-82.1715,2.281,6.07,1111122 
SCCF RECON,ioos:station:SCCF:51:1,2011-06-02T18:00:00Z,26.5545,-82.1715,2.229,6.3,1111122 
SCCF RECON,ioos:station:SCCF:51:1,2011-06-02T19:00:00Z,26.5545,-82.1715,2.134,6.32,1111122 
SCCF RECON,ioos:station:SCCF:51:1,2011-06-02T20:00:00Z,26.5545,-82.1715,2.012,6.41,1111122 
SCCF RECON,ioos:station:SCCF:51:1,2011-06-02T21:00:00Z,26.5545,-82.1715,1.876,6.67,1111122 
SCCF RECON,ioos:station:SCCF:51:1,2011-06-02T22:00:00Z,26.5545,-82.1715,1.752,6.85,1111122 
SCCF RECON,ioos:station:SCCF:51:1,2011-06-02T23:00:00Z,26.5545,-82.1715,1.635,7.04,1111122 
SCCF RECON,ioos:station:SCCF:51:1,2011-06-03T00:00:00Z,26.5545,-82.1715,1.528,7.04,1111122 
SCCF RECON,ioos:station:SCCF:51:1,2011-06-03T01:00:00Z,26.5545,-82.1715,1.446,7.33,1111122 
SCCF RECON,ioos:station:SCCF:51:1,2011-06-03T02:00:00Z,26.5545,-82.1715,1.427,7.08,1111122 
SCCF RECON,ioos:station:SCCF:51:1,2011-06-03T03:00:00Z,26.5545,-82.1715,1.512,6.84,1111122 
SCCF RECON,ioos:station:SCCF:51:1,2011-06-03T04:00:00Z,26.5545,-82.1715,1.643,6.27,1111122 
SCCF RECON,ioos:station:SCCF:51:1,2011-06-03T05:00:00Z,26.5545,-82.1715,1.765,6.01,1111122 
SCCF RECON,ioos:station:SCCF:51:1,2011-06-03T06:00:00Z,26.5545,-82.1715,1.868,5.71,1111122 
SCCF RECON,ioos:station:SCCF:51:1,2011-06-03T07:00:00Z,26.5545,-82.1715,1.921,5.72,1111122 
SCCF RECON,ioos:station:SCCF:51:1,2011-06-03T08:00:00Z,26.5545,-82.1715,1.913,5.48,1111122 
SCCF RECON,ioos:station:SCCF:51:1,2011-06-03T09:00:00Z,26.5545,-82.1715,1.87,5.68,1111122 
SCCF RECON,ioos:station:SCCF:51:1,2011-06-03T10:00:00Z,26.5545,-82.1715,1.854,5.52,1111122 
SCCF RECON,ioos:station:SCCF:51:1,2011-06-03T11:00:00Z,26.5545,-82.1715,1.871,5.43,1111122 
SCCF RECON,ioos:station:SCCF:51:1,2011-06-03T12:00:00Z,26.5545,-82.1715,1.922,5.45,1111122 
SCCF RECON,ioos:station:SCCF:51:1,2011-06-03T13:00:00Z,26.5545,-82.1715,1.986,5.7,1111122 
SCCF RECON,ioos:station:SCCF:51:1,2011-06-03T14:00:00Z,26.5545,-82.1715,2.031,5.82,1111122 
SCCF RECON,ioos:station:SCCF:51:1,2011-06-03T15:00:00Z,26.5545,-82.1715,2.103,6.05,1111122 
SCCF RECON,ioos:station:SCCF:51:1,2011-06-03T16:00:00Z,26.5545,-82.1715,2.175,6.24,1111122 
SCCF RECON,ioos:station:SCCF:51:1,2011-06-03T17:00:00Z,26.5545,-82.1715,2.245,6.23,1111122 
SCCF RECON,ioos:station:SCCF:51:1,2011-06-03T18:00:00Z,26.5545,-82.1715,2.268,6.03,1111122 
SCCF RECON,ioos:station:SCCF:51:1,2011-06-03T19:00:00Z,26.5545,-82.1715,2.214,6.44,1111122 
SCCF RECON,ioos:station:SCCF:51:1,2011-06-03T20:00:00Z,26.5545,-82.1715,2.128,6.59,1111122 
SCCF RECON,ioos:station:SCCF:51:1,2011-06-03T21:00:00Z,26.5545,-82.1715,2.002,6.66,1111122 
SCCF RECON,ioos:station:SCCF:51:1,2011-06-03T22:00:00Z,26.5545,-82.1715,1.878,6.88,1111122 
SCCF RECON,ioos:station:SCCF:51:1,2011-06-03T23:00:00Z,26.5545,-82.1715,1.747,7.39,1111122 
SCCF RECON,ioos:station:SCCF:51:1,2011-06-04T00:00:00Z,26.5545,-82.1715,1.626,7.57,1111122 
SCCF RECON,ioos:station:SCCF:51:1,2011-06-04T01:00:00Z,26.5545,-82.1715,1.529,7.38,1111122 
SCCF RECON,ioos:station:SCCF:51:1,2011-06-04T02:00:00Z,26.5545,-82.1715,1.462,7.2,1111122 
SCCF RECON,ioos:station:SCCF:51:1,2011-06-04T03:00:00Z,26.5545,-82.1715,1.474,7.07,1111122 
SCCF RECON,ioos:station:SCCF:51:1,2011-06-04T04:00:00Z,26.5545,-82.1715,1.586,6.78,1111122 
SCCF RECON,ioos:station:SCCF:51:1,2011-06-04T05:00:00Z,26.5545,-82.1715,1.707,6.52,1111122 
SCCF RECON,ioos:station:SCCF:51:1,2011-06-04T06:00:00Z,26.5545,-82.1715,1.815,5.89,1111122 
SCCF RECON,ioos:station:SCCF:51:1,2011-06-04T07:00:00Z,26.5545,-82.1715,1.899,5.84,1111122 
SCCF RECON,ioos:station:SCCF:51:1,2011-06-04T08:00:00Z,26.5545,-82.1715,1.941,5.62,1111122 
SCCF RECON,ioos:station:SCCF:51:1,2011-06-04T09:00:00Z,26.5545,-82.1715,1.958,5.48,1111122 
SCCF RECON,ioos:station:SCCF:51:1,2011-06-04T10:00:00Z,26.5545,-82.1715,1.944,5.47,1111122 
SCCF RECON,ioos:station:SCCF:51:1,2011-06-04T11:00:00Z,26.5545,-82.1715,1.932,5.31,1111122 
SCCF RECON,ioos:station:SCCF:51:1,2011-06-04T12:00:00Z,26.5545,-82.1715,1.929,5.5,1111122 
SCCF RECON,ioos:station:SCCF:51:1,2011-06-04T13:00:00Z,26.5545,-82.1715,1.957,5.66,1111122 
SCCF RECON,ioos:station:SCCF:51:1,2011-06-04T14:00:00Z,26.5545,-82.1715,2.015,5.58,1111122 
SCCF RECON,ioos:station:SCCF:51:1,2011-06-04T15:00:00Z,26.5545,-82.1715,2.088,6.06,1111122 
SCCF RECON,ioos:station:SCCF:51:1,2011-06-04T16:00:00Z,26.5545,-82.1715,2.168,6.28,1111122 
SCCF RECON,ioos:station:SCCF:51:1,2011-06-04T17:00:00Z,26.5545,-82.1715,2.24,6.36,1111122 
SCCF RECON,ioos:station:SCCF:51:1,2011-06-04T18:00:00Z,26.5545,-82.1715,2.291,6.45,1111122 
SCCF RECON,ioos:station:SCCF:51:1,2011-06-04T19:00:00Z,26.5545,-82.1715,2.279,6.25,1111122 
SCCF RECON,ioos:station:SCCF:51:1,2011-06-04T20:00:00Z,26.5545,-82.1715,2.204,6.6,1111122 
SCCF RECON,ioos:station:SCCF:51:1,2011-06-04T21:00:00Z,26.5545,-82.1715,2.094,6.67,1111122 
SCCF RECON,ioos:station:SCCF:51:1,2011-06-04T22:00:00Z,26.5545,-82.1715,1.969,6.77,1111122 
SCCF RECON,ioos:station:SCCF:51:1,2011-06-04T23:00:00Z,26.5545,-82.1715,1.844,7.15,1111122 
SCCF RECON,ioos:station:SCCF:51:1,2011-06-05T00:00:00Z,26.5545,-82.1715,1.726,7.57,1111122 
SCCF RECON,ioos:station:SCCF:51:1,2011-06-05T01:00:00Z,26.5545,-82.1715,1.617,7.84,1111122 
SCCF RECON,ioos:station:SCCF:51:1,2011-06-05T02:00:00Z,26.5545,-82.1715,1.52,7.74,1111122 
SCCF RECON,ioos:station:SCCF:51:1,2011-06-05T03:00:00Z,26.5545,-82.1715,1.462,7.15,1111122 
SCCF RECON,ioos:station:SCCF:51:1,2011-06-05T04:00:00Z,26.5545,-82.1715,1.496,6.95,1111122 
SCCF RECON,ioos:station:SCCF:51:1,2011-06-05T05:00:00Z,26.5545,-82.1715,1.605,6.65,1111122 
SCCF RECON,ioos:station:SCCF:51:1,2011-06-05T06:00:00Z,26.5545,-82.1715,1.0,-9999.0,1111122 
SCCF RECON,ioos:station:SCCF:51:1,2011-06-05T07:00:00Z,26.5545,-82.1715,1.0,-9999.0,1111122 
SCCF RECON,ioos:station:SCCF:51:1,2011-06-05T08:00:00Z,26.5545,-82.1715,1.0,-9999.0,1111122 
SCCF RECON,ioos:station:SCCF:51:1,2011-06-05T09:00:00Z,26.5545,-82.1715,1.0,-9999.0,1111122 
SCCF RECON,ioos:station:SCCF:51:1,2011-06-05T10:00:00Z,26.5545,-82.1715,1.0,-9999.0,1111122 
SCCF RECON,ioos:station:SCCF:51:1,2011-06-05T11:00:00Z,26.5545,-82.1715,1.0,-9999.0,1111122 
SCCF RECON,ioos:station:SCCF:51:1,2011-06-05T12:00:00Z,26.5545,-82.1715,1.0,-9999.0,1111122 
SCCF RECON,ioos:station:SCCF:51:1,2011-06-05T13:00:00Z,26.5545,-82.1715,1.0,-9999.0,1111122 
SCCF RECON,ioos:station:SCCF:51:1,2011-06-05T14:00:00Z,26.5545,-82.1715,1.0,-9999.0,1111122 
SCCF RECON,ioos:station:SCCF:51:1,2011-06-05T15:00:00Z,26.5545,-82.1715,1.0,-9999.0,1111122 
SCCF RECON,ioos:station:SCCF:51:1,2011-06-05T16:00:00Z,26.5545,-82.1715,1.0,-9999.0,1111122 
SCCF RECON,ioos:station:SCCF:51:1,2011-06-05T17:00:00Z,26.5545,-82.1715,1.0,-9999.0,1111122 
SCCF RECON,ioos:station:SCCF:51:1,2011-06-05T18:00:00Z,26.5545,-82.1715,1.0,-9999.0,1111122 
SCCF RECON,ioos:station:SCCF:51:1,2011-06-05T19:00:00Z,26.5545,-82.1715,1.0,-9999.0,1111122 
SCCF RECON,ioos:station:SCCF:51:1,2011-06-05T20:00:00Z,26.5545,-82.1715,1.0,-9999.0,1111122 
SCCF RECON,ioos:station:SCCF:51:1,2011-06-05T21:00:00Z,26.5545,-82.1715,1.0,-9999.0,1111122 
SCCF RECON,ioos:station:SCCF:51:1,2011-06-05T22:00:00Z,26.5545,-82.1715,1.0,-9999.0,1111122 
SCCF RECON,ioos:station:SCCF:51:1,2011-06-05T23:00:00Z,26.5545,-82.1715,1.0,-9999.0,1111122 
SCCF RECON,ioos:station:SCCF:51:1,2011-06-06T00:00:00Z,26.5545,-82.1715,1.0,-9999.0,1111122 
SCCF RECON,ioos:station:SCCF:51:1,2011-06-06T01:00:00Z,26.5545,-82.1715,1.0,-9999.0,1111122 
SCCF RECON,ioos:station:SCCF:51:1,2011-06-06T02:00:00Z,26.5545,-82.1715,1.0,-9999.0,1111122 
SCCF RECON,ioos:station:SCCF:51:1,2011-06-06T03:00:00Z,26.5545,-82.1715,1.0,-9999.0,1111122 
SCCF RECON,ioos:station:SCCF:51:1,2011-06-06T04:00:00Z,26.5545,-82.1715,1.0,-9999.0,1111122 
SCCF RECON,ioos:station:SCCF:51:1,2011-06-06T05:00:00Z,26.5545,-82.1715,1.0,-9999.0,1111122 
SCCF RECON,ioos:station:SCCF:51:1,2011-06-06T06:00:00Z,26.5545,-82.1715,1.0,-9999.0,1111122 
SCCF RECON,ioos:station:SCCF:51:1,2011-06-06T07:00:00Z,26.5545,-82.1715,1.0,-9999.0,1111122 
SCCF RECON,ioos:station:SCCF:51:1,2011-06-06T08:00:00Z,26.5545,-82.1715,1.0,-9999.0,1111122 
SCCF RECON,ioos:station:SCCF:51:1,2011-06-06T09:00:00Z,26.5545,-82.1715,1.0,-9999.0,1111122 
SCCF RECON,ioos:station:SCCF:51:1,2011-06-06T10:00:00Z,26.5545,-82.1715,1.0,-9999.0,1111122 
SCCF RECON,ioos:station:SCCF:51:1,2011-06-06T11:00:00Z,26.5545,-82.1715,1.0,-9999.0,1111122 
SCCF RECON,ioos:station:SCCF:51:1,2011-06-06T12:00:00Z,26.5545,-82.1715,1.0,-9999.0,1111122 
SCCF RECON,ioos:station:SCCF:51:1,2011-06-06T13:00:00Z,26.5545,-82.1715,1.0,-9999.0,1111122 
SCCF RECON,ioos:station:SCCF:51:1,2011-06-06T14:00:00Z,26.5545,-82.1715,1.0,-9999.0,1111122 
SCCF RECON,ioos:station:SCCF:51:1,2011-06-06T15:00:00Z,26.5545,-82.1715,1.0,-9999.0,1111122 
SCCF RECON,ioos:station:SCCF:51:1,2011-06-06T16:00:00Z,26.5545,-82.1715,2.019,7.6,1111122 
SCCF RECON,ioos:station:SCCF:51:1,2011-06-06T17:00:00Z,26.5545,-82.1715,2.075,7.58,1111122 
SCCF RECON,ioos:station:SCCF:51:1,2011-06-06T18:00:00Z,26.5545,-82.1715,2.123,7.55,1111122 
SCCF RECON,ioos:station:SCCF:51:1,2011-06-06T19:00:00Z,26.5545,-82.1715,2.18,7.5,1111122 
SCCF RECON,ioos:station:SCCF:51:1,2011-06-06T20:00:00Z,26.5545,-82.1715,2.21,7.62,1111122 
SCCF RECON,ioos:station:SCCF:51:1,2011-06-06T21:00:00Z,26.5545,-82.1715,2.199,7.54,1111122 
SCCF RECON,ioos:station:SCCF:51:1,2011-06-06T22:00:00Z,26.5545,-82.1715,2.135,7.37,1111122 
SCCF RECON,ioos:station:SCCF:51:1,2011-06-06T23:00:00Z,26.5545,-82.1715,2.051,7.13,1111122 
SCCF RECON,ioos:station:SCCF:51:1,2011-06-07T00:00:00Z,26.5545,-82.1715,1.945,7.01,1111122 
SCCF RECON,ioos:station:SCCF:51:1,2011-06-07T01:00:00Z,26.5545,-82.1715,1.819,6.96,1111122 
SCCF RECON,ioos:station:SCCF:51:1,2011-06-07T02:00:00Z,26.5545,-82.1715,1.703,6.81,1111122 
SCCF RECON,ioos:station:SCCF:51:1,2011-06-07T03:00:00Z,26.5545,-82.1715,1.623,6.72,1111122 
SCCF RECON,ioos:station:SCCF:51:1,2011-06-07T04:00:00Z,26.5545,-82.1715,1.561,6.67,1111122 
SCCF RECON,ioos:station:SCCF:51:1,2011-06-07T05:00:00Z,26.5545,-82.1715,1.59,6.65,1111122 
SCCF RECON,ioos:station:SCCF:51:1,2011-06-07T06:00:00Z,26.5545,-82.1715,1.683,7.12,1111122 
SCCF RECON,ioos:station:SCCF:51:1,2011-06-07T07:00:00Z,26.5545,-82.1715,1.802,7.34,1111122 
SCCF RECON,ioos:station:SCCF:51:1,2011-06-07T08:00:00Z,26.5545,-82.1715,1.932,7.38,1111122 
SCCF RECON,ioos:station:SCCF:51:1,2011-06-07T09:00:00Z,26.5545,-82.1715,2.016,7.24,1111122 
SCCF RECON,ioos:station:SCCF:51:1,2011-06-07T10:00:00Z,26.5545,-82.1715,2.054,7.18,1111122 
SCCF RECON,ioos:station:SCCF:51:1,2011-06-07T11:00:00Z,26.5545,-82.1715,2.037,7.16,1111122 
SCCF RECON,ioos:station:SCCF:51:1,2011-06-07T12:00:00Z,26.5545,-82.1715,1.999,7.18,1111122 
SCCF RECON,ioos:station:SCCF:51:1,2011-06-07T13:00:00Z,26.5545,-82.1715,1.95,6.75,1111122 
SCCF RECON,ioos:station:SCCF:51:1,2011-06-07T14:00:00Z,26.5545,-82.1715,1.91,6.72,1111122 
SCCF RECON,ioos:station:SCCF:51:1,2011-06-07T15:00:00Z,26.5545,-82.1715,1.907,6.69,1111122 
SCCF RECON,ioos:station:SCCF:51:1,2011-06-07T16:00:00Z,26.5545,-82.1715,1.922,6.64,1111122 
SCCF RECON,ioos:station:SCCF:51:1,2011-06-07T17:00:00Z,26.5545,-82.1715,1.947,6.58,1111122 
SCCF RECON,ioos:station:SCCF:51:1,2011-06-07T18:00:00Z,26.5545,-82.1715,1.99,6.56,1111122 
SCCF RECON,ioos:station:SCCF:51:1,2011-06-07T19:00:00Z,26.5545,-82.1715,2.042,6.56,1111122 
SCCF RECON,ioos:station:SCCF:51:1,2011-06-07T20:00:00Z,26.5545,-82.1715,2.09,6.49,1111122 
SCCF RECON,ioos:station:SCCF:51:1,2011-06-07T21:00:00Z,26.5545,-82.1715,2.131,6.44,1111122 
SCCF RECON,ioos:station:SCCF:51:1,2011-06-07T22:00:00Z,26.5545,-82.1715,2.132,6.35,1111122 
SCCF RECON,ioos:station:SCCF:51:1,2011-06-07T23:00:00Z,26.5545,-82.1715,2.102,6.34,1111122 
SCCF RECON,ioos:station:SCCF:51:1,2011-06-08T00:00:00Z,26.5545,-82.1715,2.037,6.53,1111122 
SCCF RECON,ioos:station:SCCF:51:1,2011-06-08T01:00:00Z,26.5545,-82.1715,1.942,6.5,1111122 
SCCF RECON,ioos:station:SCCF:51:1,2011-06-08T02:00:00Z,26.5545,-82.1715,1.845,6.21,1111122 
SCCF RECON,ioos:station:SCCF:51:1,2011-06-08T03:00:00Z,26.5545,-82.1715,1.748,6.24,1111122 
SCCF RECON,ioos:station:SCCF:51:1,2011-06-08T04:00:00Z,26.5545,-82.1715,1.662,6.12,1111122 
SCCF RECON,ioos:station:SCCF:51:1,2011-06-08T05:00:00Z,26.5545,-82.1715,1.61,6.09,1111122 
SCCF RECON,ioos:station:SCCF:51:1,2011-06-08T06:00:00Z,26.5545,-82.1715,1.623,6.3,1111122 
SCCF RECON,ioos:station:SCCF:51:1,2011-06-08T07:00:00Z,26.5545,-82.1715,1.71,6.26,1111122 
SCCF RECON,ioos:station:SCCF:51:1,2011-06-08T08:00:00Z,26.5545,-82.1715,1.815,6.33,1111122 
SCCF RECON,ioos:station:SCCF:51:1,2011-06-08T09:00:00Z,26.5545,-82.1715,1.938,5.55,1111122 
SCCF RECON,ioos:station:SCCF:51:1,2011-06-08T10:00:00Z,26.5545,-82.1715,2.032,5.6,1111122 
SCCF RECON,ioos:station:SCCF:51:1,2011-06-08T11:00:00Z,26.5545,-82.1715,2.094,5.61,1111122 
SCCF RECON,ioos:station:SCCF:51:1,2011-06-08T12:00:00Z,26.5545,-82.1715,2.092,5.55,1111122 
SCCF RECON,ioos:station:SCCF:51:1,2011-06-08T13:00:00Z,26.5545,-82.1715,2.041,5.52,1111122 
SCCF RECON,ioos:station:SCCF:51:1,2011-06-08T14:00:00Z,26.5545,-82.1715,1.974,5.45,1111122 
SCCF RECON,ioos:station:SCCF:51:1,2011-06-08T15:00:00Z,26.5545,-82.1715,1.906,5.3,1111122 
SCCF RECON,ioos:station:SCCF:51:1,2011-06-08T16:00:00Z,26.5545,-82.1715,1.851,5.63,1111122 
SCCF RECON,ioos:station:SCCF:51:1,2011-06-08T17:00:00Z,26.5545,-82.1715,1.841,5.52,1111122 
SCCF RECON,ioos:station:SCCF:51:1,2011-06-08T18:00:00Z,26.5545,-82.1715,1.856,5.27,1111122 
SCCF RECON,ioos:station:SCCF:51:1,2011-06-08T19:00:00Z,26.5545,-82.1715,1.896,5.46,1111122 
SCCF RECON,ioos:station:SCCF:51:1,2011-06-08T20:00:00Z,26.5545,-82.1715,1.941,5.39,1111122 
SCCF RECON,ioos:station:SCCF:51:1,2011-06-08T21:00:00Z,26.5545,-82.1715,2.02,5.01,1111122 
SCCF RECON,ioos:station:SCCF:51:1,2011-06-08T22:00:00Z,26.5545,-82.1715,2.072,5.04,1111122 
SCCF RECON,ioos:station:SCCF:51:1,2011-06-08T23:00:00Z,26.5545,-82.1715,2.084,4.97,1111122 
SCCF RECON,ioos:station:SCCF:51:1,2011-06-09T00:00:00Z,26.5545,-82.1715,2.061,4.95,1111122 
SCCF RECON,ioos:station:SCCF:51:1,2011-06-09T01:00:00Z,26.5545,-82.1715,2.003,4.98,1111122 
SCCF RECON,ioos:station:SCCF:51:1,2011-06-09T02:00:00Z,26.5545,-82.1715,1.936,4.94,1111122 
SCCF RECON,ioos:station:SCCF:51:1,2011-06-09T03:00:00Z,26.5545,-82.1715,1.853,4.87,1111122 
SCCF RECON,ioos:station:SCCF:51:1,2011-06-09T04:00:00Z,26.5545,-82.1715,1.764,4.84,1111122 
SCCF RECON,ioos:station:SCCF:51:1,2011-06-09T05:00:00Z,26.5545,-82.1715,1.68,4.88,1111122 
SCCF RECON,ioos:station:SCCF:51:1,2011-06-09T06:00:00Z,26.5545,-82.1715,1.648,4.75,1111122 
SCCF RECON,ioos:station:SCCF:51:1,2011-06-09T07:00:00Z,26.5545,-82.1715,1.687,4.73,1111122 
SCCF RECON,ioos:station:SCCF:51:1,2011-06-09T08:00:00Z,26.5545,-82.1715,1.796,4.73,1111122 
SCCF RECON,ioos:station:SCCF:51:1,2011-06-09T09:00:00Z,26.5545,-82.1715,1.923,4.65,1111122 
SCCF RECON,ioos:station:SCCF:51:1,2011-06-09T10:00:00Z,26.5545,-82.1715,2.04,5.12,1111122 
SCCF RECON,ioos:station:SCCF:51:1,2011-06-09T11:00:00Z,26.5545,-82.1715,2.138,4.65,1111122 
SCCF RECON,ioos:station:SCCF:51:1,2011-06-09T12:00:00Z,26.5545,-82.1715,2.188,4.64,1111122 
SCCF RECON,ioos:station:SCCF:51:1,2011-06-09T13:00:00Z,26.5545,-82.1715,2.17,4.64,1111122 
SCCF RECON,ioos:station:SCCF:51:1,2011-06-09T14:00:00Z,26.5545,-82.1715,2.099,4.64,1111122 
SCCF RECON,ioos:station:SCCF:51:1,2011-06-09T15:00:00Z,26.5545,-82.1715,2.011,4.78,1111122 
SCCF RECON,ioos:station:SCCF:51:1,2011-06-09T16:00:00Z,26.5545,-82.1715,1.923,4.72,1111122 
SCCF RECON,ioos:station:SCCF:51:1,2011-06-09T17:00:00Z,26.5545,-82.1715,1.851,4.49,1111122 
SCCF RECON,ioos:station:SCCF:51:1,2011-06-09T18:00:00Z,26.5545,-82.1715,1.8,5.11,1111122 
SCCF RECON,ioos:station:SCCF:51:1,2011-06-09T19:00:00Z,26.5545,-82.1715,1.781,4.84,1111122 
SCCF RECON,ioos:station:SCCF:51:1,2011-06-09T20:00:00Z,26.5545,-82.1715,1.82,4.71,1111122 
SCCF RECON,ioos:station:SCCF:51:1,2011-06-09T21:00:00Z,26.5545,-82.1715,1.879,4.65,1111122 
SCCF RECON,ioos:station:SCCF:51:1,2011-06-09T22:00:00Z,26.5545,-82.1715,1.96,4.16,1111122 
SCCF RECON,ioos:station:SCCF:51:1,2011-06-09T23:00:00Z,26.5545,-82.1715,2.04,4.04,1111122 
SCCF RECON,ioos:station:SCCF:51:1,2011-06-10T00:00:00Z,26.5545,-82.1715,2.076,3.91,1111122 
SCCF RECON,ioos:station:SCCF:51:1,2011-06-10T01:00:00Z,26.5545,-82.1715,2.06,3.93,1111122 
SCCF RECON,ioos:station:SCCF:51:1,2011-06-10T02:00:00Z,26.5545,-82.1715,2.041,4.1,1111122 
SCCF RECON,ioos:station:SCCF:51:1,2011-06-10T03:00:00Z,26.5545,-82.1715,1.985,3.66,1111122 
SCCF RECON,ioos:station:SCCF:51:1,2011-06-10T04:00:00Z,26.5545,-82.1715,1.906,3.79,1111122 
SCCF RECON,ioos:station:SCCF:51:1,2011-06-10T05:00:00Z,26.5545,-82.1715,1.811,3.82,1111122 
SCCF RECON,ioos:station:SCCF:51:1,2011-06-10T06:00:00Z,26.5545,-82.1715,1.746,3.78,1111122 
SCCF RECON,ioos:station:SCCF:51:1,2011-06-10T07:00:00Z,26.5545,-82.1715,1.744,3.82,1111122 
SCCF RECON,ioos:station:SCCF:51:1,2011-06-10T08:00:00Z,26.5545,-82.1715,1.8,3.69,1111122 
SCCF RECON,ioos:station:SCCF:51:1,2011-06-10T09:00:00Z,26.5545,-82.1715,1.898,3.7,1111122 
SCCF RECON,ioos:station:SCCF:51:1,2011-06-10T10:00:00Z,26.5545,-82.1715,2.006,3.6,1111122 
SCCF RECON,ioos:station:SCCF:51:1,2011-06-10T11:00:00Z,26.5545,-82.1715,2.11,3.57,1111122 
SCCF RECON,ioos:station:SCCF:51:1,2011-06-10T12:00:00Z,26.5545,-82.1715,2.183,3.72,1111122 
SCCF RECON,ioos:station:SCCF:51:1,2011-06-10T13:00:00Z,26.5545,-82.1715,2.207,3.69,1111122 
SCCF RECON,ioos:station:SCCF:51:1,2011-06-10T14:00:00Z,26.5545,-82.1715,2.152,3.56,1111122 
SCCF RECON,ioos:station:SCCF:51:1,2011-06-10T15:00:00Z,26.5545,-82.1715,2.074,3.78,1111122 
SCCF RECON,ioos:station:SCCF:51:1,2011-06-10T16:00:00Z,26.5545,-82.1715,1.975,3.67,1111122 
SCCF RECON,ioos:station:SCCF:51:1,2011-06-10T17:00:00Z,26.5545,-82.1715,1.866,3.5,1111122 
SCCF RECON,ioos:station:SCCF:51:1,2011-06-10T18:00:00Z,26.5545,-82.1715,1.76,3.47,1111122 
SCCF RECON,ioos:station:SCCF:51:1,2011-06-10T19:00:00Z,26.5545,-82.1715,1.68,3.55,1111122 
SCCF RECON,ioos:station:SCCF:51:1,2011-06-10T20:00:00Z,26.5545,-82.1715,1.643,3.34,1111122 
SCCF RECON,ioos:station:SCCF:51:1,2011-06-10T21:00:00Z,26.5545,-82.1715,1.672,3.53,1111122 
SCCF RECON,ioos:station:SCCF:51:1,2011-06-10T22:00:00Z,26.5545,-82.1715,1.724,3.32,1111122 
SCCF RECON,ioos:station:SCCF:51:1,2011-06-10T23:00:00Z,26.5545,-82.1715,1.806,3.33,1111122 
SCCF RECON,ioos:station:SCCF:51:1,2011-06-11T00:00:00Z,26.5545,-82.1715,1.917,3.31,1111122 
SCCF RECON,ioos:station:SCCF:51:1,2011-06-11T01:00:00Z,26.5545,-82.1715,1.988,3.26,1111122 
SCCF RECON,ioos:station:SCCF:51:1,2011-06-11T02:00:00Z,26.5545,-82.1715,2.006,3.47,1111122 
SCCF RECON,ioos:station:SCCF:51:1,2011-06-11T03:00:00Z,26.5545,-82.1715,1.984,3.21,1111122 
SCCF RECON,ioos:station:SCCF:51:1,2011-06-11T04:00:00Z,26.5545,-82.1715,1.944,3.31,1111122 
SCCF RECON,ioos:station:SCCF:51:1,2011-06-11T05:00:00Z,26.5545,-82.1715,1.884,3.15,1111122 
SCCF RECON,ioos:station:SCCF:51:1,2011-06-11T06:00:00Z,26.5545,-82.1715,1.826,3.12,1111122 
SCCF RECON,ioos:station:SCCF:51:1,2011-06-11T07:00:00Z,26.5545,-82.1715,1.75,3.42,1111122 
SCCF RECON,ioos:station:SCCF:51:1,2011-06-11T08:00:00Z,26.5545,-82.1715,1.781,3.31,1111122 
SCCF RECON,ioos:station:SCCF:51:1,2011-06-11T09:00:00Z,26.5545,-82.1715,1.85,3.46,1111122 
SCCF RECON,ioos:station:SCCF:51:1,2011-06-11T10:00:00Z,26.5545,-82.1715,1.98,3.04,1111122 
SCCF RECON,ioos:station:SCCF:51:1,2011-06-11T11:00:00Z,26.5545,-82.1715,2.11,3.04,1111122 
SCCF RECON,ioos:station:SCCF:51:1,2011-06-11T12:00:00Z,26.5545,-82.1715,2.209,3.1,1111122 
SCCF RECON,ioos:station:SCCF:51:1,2011-06-11T13:00:00Z,26.5545,-82.1715,2.28,3.05,1111122 
SCCF RECON,ioos:station:SCCF:51:1,2011-06-11T14:00:00Z,26.5545,-82.1715,2.257,3.05,1111122 
SCCF RECON,ioos:station:SCCF:51:1,2011-06-11T15:00:00Z,26.5545,-82.1715,2.2,2.95,1111122 
SCCF RECON,ioos:station:SCCF:51:1,2011-06-11T16:00:00Z,26.5545,-82.1715,2.104,3.1,1111122 
SCCF RECON,ioos:station:SCCF:51:1,2011-06-11T17:00:00Z,26.5545,-82.1715,1.982,2.96,1111122 
SCCF RECON,ioos:station:SCCF:51:1,2011-06-11T18:00:00Z,26.5545,-82.1715,1.856,2.89,1111122 
SCCF RECON,ioos:station:SCCF:51:1,2011-06-11T19:00:00Z,26.5545,-82.1715,1.734,2.85,1111122 